This is the latest recevied weather packets stored in our database for station/object S51UL-6. If no packets are shown the sender has not sent any weather packets the latest 10 day(s).
| Time | Temp. | Humidity | Pressure | Rain* | Wind** | Luminosity | Snow |
|---|---|---|---|---|---|---|---|
| 1778077693 | 21.67° C | 54% | 1010.1 hPa | 0 mm | - | - | - |
| 1778077093 | 22.22° C | 53% | 1010 hPa | 0 mm | - | - | - |
| 1778076794 | 22.22° C | 54% | 1010.1 hPa | 0 mm | - | - | - |
| 1778076193 | 22.22° C | 55% | 1010 hPa | 0 mm | - | - | - |
| 1778075593 | 21.11° C | 56% | 1010.3 hPa | 0 mm | - | - | - |
| 1778075294 | 21.11° C | 57% | 1010.2 hPa | 0 mm | - | - | - |
| 1778074694 | 21.11° C | 56% | 1010.4 hPa | 0 mm | - | - | - |
| 1778074394 | 21.11° C | 56% | 1010.5 hPa | 0 mm | - | - | - |
| 1778074094 | 21.11° C | 56% | 1010.2 hPa | 0 mm | - | - | - |
| 1778073794 | 21.11° C | 56% | 1010.3 hPa | 0 mm | - | - | - |
| 1778073494 | 21.11° C | 57% | 1010.4 hPa | 0 mm | - | - | - |
| 1778073194 | 20.56° C | 56% | 1010.3 hPa | 0 mm | - | - | - |
| 1778072894 | 21.11° C | 55% | 1010.4 hPa | 0 mm | - | - | - |
| 1778071994 | 21.67° C | 54% | 1010.4 hPa | 0 mm | - | - | - |
| 1778071695 | 22.22° C | 55% | 1010.5 hPa | 0 mm | - | - | - |
| 1778071395 | 21.67° C | 55% | 1010.3 hPa | 0 mm | - | - | - |
| 1778071094 | 21.67° C | 53% | 1010.4 hPa | 0 mm | - | - | - |
| 1778070795 | 22.22° C | 52% | 1010.3 hPa | 0 mm | - | - | - |
| 1778070494 | 22.22° C | 53% | 1010.1 hPa | 0 mm | - | - | - |
| 1778070196 | 22.22° C | 52% | 1010.3 hPa | 0 mm | - | - | - |
| 1778069894 | 22.78° C | 52% | 1010.4 hPa | 0 mm | - | - | - |
| 1778069596 | 22.78° C | 52% | 1010.4 hPa | 0 mm | - | - | - |
| 1778069294 | 22.22° C | 52% | 1010.4 hPa | 0 mm | - | - | - |
| 1778068995 | 22.78° C | 51% | 1010.4 hPa | 0 mm | - | - | - |
| 1778068695 | 23.33° C | 50% | 1010.5 hPa | 0 mm | - | - | - |
* Rain latest hour (hover to see other rain measurements)
** Current wind speed in m/s (hover to see current wind gust speed)